User: anonymous   Login
Location: Turtle Rock Observatory
(36.6913°N, 81.9708°W)
Time: 23:29:18
(UTC-04:00)
Language:

TITAN 4B R/B - Orbit

View from above orbital plane
View from above orbital plane
View from above satellite
View from above satellite

Ground track
Ground track

The orbit data is extracted from the following two-line orbital elements,

1 28647U 05016B   15194.65737434 0.00002800  00000-0  16801-3 0    00
2 28647  56.9966 352.8744 0135056 138.4684 221.5315 15.03081153    03
Epoch (UTC): 13 July 2015 15:46:37
Eccentricity: 0.0135056
inclination: 56.9966°
perigee height: 464 km
apogee height: 651 km
right ascension of ascending node: 352.8744°
argument of perigee: 138.4684°
revolutions per day: 15.03081153
mean anomaly at epoch: 221.5315°
orbit number at epoch: 0

The dashed part of the orbit path shows where the satellite is in the earth's shadow,  

DLR